Presure
319 317 315 313 313 310 307 302 302 300 302 302 301 294 295 293 292 296 296 297 303 307 341 362 361 356 355 351 344 349 350 347 349 350 355 357 357 346 339 325 321 321 222 321 167 220 119 95 246 319 326 335 247 252
312 307 311 310 304 305 302 301 298 299 298 296 298 300 296 295 304 318 370 384 377 354 340 342 340 337 332 332 332 327 322 321 324 326 334 343 348 354 345 336 310 312 312 319 318 320 325 321 326 330 258 339 344 222
314 309 305 303 302 300 299 299 298 298 300 299 299 300 315 379 368 347 340 336 334 323 319 314 315 322 320 318 319 315 316 320 327 333 336 338 334 323 326 333 330 325 334 349 358 210 364 158 344 113 358 345 344 345
314 313 312 310 308 306 306 304 305 305 305 317 336 349 346 335 333 323 316 315 313 316 312 306 308 312 311 309 316 327 331 333 339 343 350 349 348 354 360 364 366 312 331 341 369 364 391 393 397 394 384 370 365 362
323 320 320 323 324 326 331 334 333 333 337 338 343 327 323 318 313 309 307 314 310 304 302 298 306 315 325 332 336 336 342 426 447 450 448 444 441 439 418 409 377 389 321 351 362 371 373 368 390 405 417 381 369 359
350 347 345 342 343 342 335 336 336 334 345 320 318 318 310 306 302 313 307 301 306 313 324 329 336 343 337 355 434 415 411 415 402 395 384 396 405 394 392 372 348 332 332 335 345 345 346 350 362 361 362 360 353 349
337 329 334 340 350 350 361 348 330 301 319 316 308 299 304 311 302 300 308 316 324 331 332 340 353 386 448 420 406 397 385 377 375 379 368 336 332 331 340 324 309 307 322 322 315 316 327 338 331 339 330 331 334 334
349 332 345 337 353 341 311 317 327 315 302 297 305 307 300 301 308 314 320 319 354 426 440 439 431 450 400 374 358 366 364 351 330 329 325 324 327 322 308 308 308 302 305 292 308 315 311 315 325 337 327 334 333 330
326 331 328 329 330 331 332 304 297 299 304 302 300 306 309 317 316 324 357 382 387 383 325 381 355 346 340 329 325 323 312 316 321 308 295 288 294 291 291 289 298 297 296 296 299 299 306 311 312 315 313 316 320 332
319 312 310 310 308 305 302 304 304 299 304 307 309 319 316 325 340 311 343 331 341 325 338 338 326 324 318 318 324 317 307 296 295 289 291 291 295 294 295 295 299 302 303 308 316 319 319 316 308 301 320 320 317 320
321 315 313 311 308 307 307 307 307 312 311 314 316 323 336 320 313 340 314 327 325 324 332 321 318 317 303 300 297 291 284 287 291 285 290 300 293 283 274 274 282 285 296 305 316 328 332 340 336 328 314 319 330 338
323 320 319 316 315 315 314 312 312 316 314 320 320 321 377 288 319 324 334 313 317 307 306 301 292 296 293 288 278 276 284 285 290 291 286 283 270 273 281 280 282 284 292 309 315 322 341 341 329 334 356 382 395 393
330 322 318 314 315 313 317 319 316 322 315 324 334 378 297 319 320 334 320 320 313 306 296 285 286 284 282 277 274 285 286 289 283 284 279 273 276 268 268 272 276 281 289 296 289 279 353 360 332 327 328 328 324 318
343 338 330 326 324 323 327 314 325 325 334 336 321 318 323 335 320 314 310 303 287 286 283 281 272 275 276 278 258 272 280 273 278 272 273 246 270 268 258 269 270 272 282 278 282 282 284 274 293 304 275 302 299 299
357 348 341 332 331 335 330 330 332 342 295 297 315 285 336 311 305 303 296 274 283 281 281 276 277 278 270 274 277 268 267 266 276 274 272 268 267 267 270 267 261 260 260 271 270 270 275 277 276 288 296 292 291 291
362 355 353 350 344 342 341 342 353 387 322 291 301 335 294 309 297 293 293 276 276 282 272 271 273 272 271 272 274 271 270 271 272 267 273 273 275 273 277 279 275 277 267 263 269 271 270 271 260 276 286 286 280 275
319 314 317 361 355 362 369 324 321 314 327 329 316 325 303 290 297 297 283 278 276 278 275 274 273 274 280 276 271 270 270 272 271 267 265 261 263 266 267 268 264 263 267 272 277 278 265 273 263 269 276 274 271 270
305 327 318 311 310 398 344 326 351 334 338 339 320 317 294 283 288 284 282 281 276 276 277 266 273 272 278 278 277 269 273 267 269 266 269 267 263 261 262 261 260 259 257 259 259 266 273 284 271 266 265 256 260 262
272 259 305 307 318 316 302 369 359 353 324 327 312 301 284 286 286 283 283 274 283 283 277 281 279 276 268 271 271 274 267 274 271 268 261 266 265 258 256 256 255 253 255 259 257 256 258 257 265 279 277 266 266 269
281 279 273 251 282 300 303 302 309 301 297 290 293 289 297 292 286 284 281 282 284 281 279 276 276 278 277 276 272 272 262 267 266 267 268 271 263 267 267 252 257 256 254 254 258 255 254 255 257 257 256 256 262 265
268 279 271 296 264 250 295 293 292 292 288 295 293 292 287 289 279 291 294 291 286 278 277 277 277 279 281 282 283 280 280 280 259 263 269 273 276 273 272 267 270 262 255 256 256 255 255 255 254 254 259 260 257 257
269 275 311 315 310 308 264 294 293 286 293 286 288 287 292 294 295 293 288 283 279 280 291 292 292 287 281 281 277 280 283 282 278 279 279 271 267 271 274 275 273 277 265 262 262 258 254 252 254 258 250 249 250 251
262 280 308 319 317 310 310 302 301 302 296 286 291 288 284 278 282 281 292 299 302 301 298 294 291 288 283 279 281 286 288 284 278 278 280 284 285 279 272 273 275 275 275 275 273 275 268 262 261 259 260 259 254 249
261 269 311 308 313 304 308 304 302 299 292 309 313 301 295 299 296 288 285 291 291 298 302 303 316 317 311 302 299 293 289 291 292 293 294 291 284 281 284 289 281 283 277 274 276 277 275 271 264 261 261 260 258 256
254 282 323 330 324 318 311 314 318 313 311 318 306 303 312 319 321 314 309 310 304 301 286 295 306 314 318 310 311 316 324 321 307 288 286 286 289 297 297 297 296 298 292 286 289 286 283 283 282 282 274 271 271 269
256 299 326 330 319 318 320 314 315 313 309 307 307 313 312 317 320 319 319 321 320 318 316 316 299 301 314 323 333 334 347 352 330 327 333 331 314 300 291 285 283 289 288 304 314 315 308 296 287 287 283 282 283 282
263 298 324 328 333 337 331 327 328 323 321 320 319 318 319 317 315 315 318 319 322 324 320 319 321 322 320 316 320 338 341 340 334 326 342 350 334 329 335 320 310 305 301 299 298 293 288 288 297 311 331 307 292 285
291 314 321 327 333 330 334 326 321 321 325 325 323 323 320 316 315 317 319 317 321 322 324 321 324 333 341 337 326 320 326 322 325 328 333 330 329 347 357 345 335 325 316 314 318 324 323 310 305 307 307 291 305 381
313 319 331 335 335 334 330 317 316 320 326 323 314 312 311 312 322 321 318 322 322 323 323 323 321 320 324 329 332 335 328 322 322 323 324 330 334 338 328 320 350 353 347 341 339 340 333 328 319 322 318 304 303 315
321 331 336 338 335 329 328 322 327 322 316 322 326 333 336 336 325 323 334 360 352 332 331 330 327 326 328 330 330 331 332 332 332 329 327 333 331 333 340 343 336 319 322 348 356 352 349 337 335 331 322 316 315 312
330 337 342 346 324 316 319 324 317 311 322 333 329 335 344 349 324 336 352 355 348 339 335 338 474 412 526 511 455 434 386 379 346 347 349 344 352 337 334 335 339 345 324 332 348 362 359 351 340 337 331 323 316 316
333 349 355 309 315 305 315 321 314 311 312 321 323 328 334 337 352 382 403 523 517 519 509 506 501 492 493 501 499 462 453 427 402 394 391 401 392 388 374 356 344 348 325 336 341 355 364 351 339 329 329 330 328 327
350 343 282 318 317 303 302 305 314 317 318 323 325 338 332 345 399 486 423 505 500 499 493 492 492 488 483 481 479 465 444 433 424 416 410 403 397 391 382 373 364 356 345 330 337 339 346 357 348 333 319 343 405 397
Wind_Speed
44 44 45 46 45 46 48 50 50 52 52 54 54 59 61 64 66 67 68 70 70 72 57 45 45 46 42 41 41 40 40 43 45 46 48 52 54 55 55 48 48 53 40 54 33 33 20 12 37 65 65 65 50 52
43 46 43 44 45 46 47 48 51 50 51 54 56 57 58 60 63 65 39 29 27 31 37 39 40 40 40 42 41 41 45 47 48 48 48 46 44 43 51 47 54 50 56 57 59 55 55 53 55 59 47 60 57 44
41 43 44 44 45 45 46 47 48 49 50 52 53 56 58 34 28 29 30 28 26 29 33 38 44 44 43 42 42 44 49 51 50 52 50 48 44 42 40 39 43 43 50 51 52 28 53 33 51 31 57 60 56 56
41 42 43 43 44 46 46 46 48 48 50 51 46 39 30 27 24 26 30 30 30 29 29 41 45 46 43 45 49 49 50 50 51 50 50 46 41 39 35 35 34 42 39 40 30 35 35 33 34 38 41 44 42 41
41 42 43 44 44 45 45 43 42 41 37 35 27 25 25 25 28 29 31 30 32 34 33 41 44 48 47 48 48 47 48 29 22 16 11 8 9 10 9 1 8 9 11 11 11 18 12 17 26 24 22 29 32 33
31 31 33 34 35 33 31 32 32 30 25 21 22 22 24 26 27 27 29 33 35 39 40 41 45 44 42 43 14 14 12 7 4 5 2 3 4 8 13 10 7 2 7 13 10 9 8 8 7 7 6 10 16 22
20 21 22 25 26 26 26 22 20 21 18 19 20 23 24 24 25 28 32 36 39 41 40 41 45 40 13 10 9 4 8 10 11 10 18 15 12 15 20 12 4 5 2 5 7 12 13 9 12 10 17 18 19 21
16 14 13 13 13 15 18 17 15 15 17 20 20 21 21 23 26 29 32 34 39 18 17 15 14 7 14 21 27 28 27 33 24 24 18 18 20 15 13 14 10 5 6 11 7 10 15 15 17 18 19 20 20 21
9 10 9 10 12 13 13 13 14 16 16 16 18 20 22 24 24 25 32 2 9 16 10 29 31 36 31 25 26 28 23 23 21 19 12 8 9 6 8 4 7 7 9 13 16 18 17 17 15 13 15 16 15 16
8 9 8 9 9 9 10 11 12 13 15 16 19 20 19 21 23 5 9 11 16 7 23 32 28 31 28 28 32 34 34 29 27 16 14 11 11 9 7 7 8 11 13 15 15 16 21 24 23 19 22 21 23 24
9 7 7 7 8 8 9 9 11 14 13 15 17 17 17 1 7 9 5 5 6 10 22 24 28 34 30 32 33 27 21 20 22 16 15 16 18 11 7 3 13 17 19 19 20 19 16 19 22 19 20 25 26 24
7 6 6 6 7 8 9 9 10 12 14 13 9 4 7 12 3 7 10 10 15 22 25 31 28 30 30 27 16 14 19 17 18 17 16 16 7 7 15 14 15 18 22 24 23 20 15 11 7 10 8 3 4 5
7 5 5 5 6 7 9 9 11 13 9 11 6 14 13 10 9 17 19 25 28 33 33 25 27 27 23 17 14 20 20 20 17 18 14 10 11 9 7 10 13 16 20 20 14 8 5 7 17 18 19 21 22 23
4 3 5 6 7 8 9 10 11 9 4 8 19 18 13 16 22 24 29 33 25 28 27 23 14 17 16 17 3 10 15 13 15 12 12 4 10 8 4 6 9 12 15 14 17 20 19 14 11 8 6 13 15 18
4 3 2 3 4 6 7 10 9 6 9 6 15 5 16 21 21 28 27 19 22 17 24 19 18 19 14 15 15 10 8 7 9 11 9 9 8 6 5 3 2 4 6 10 11 10 14 12 11 6 7 13 15 17
12 10 6 4 4 5 7 7 6 5 4 7 5 13 21 23 21 22 28 21 18 22 14 14 16 15 13 12 13 10 8 6 7 6 6 6 5 5 4 2 3 3 2 4 5 5 4 6 5 7 8 13 13 13
37 36 33 6 5 4 6 4 3 7 18 19 19 21 23 20 20 23 21 19 18 19 17 15 15 15 15 15 14 10 9 7 7 7 9 9 8 6 5 4 5 4 2 4 3 3 4 2 2 2 1 7 7 9
43 32 32 31 31 5 7 10 19 15 18 18 21 23 19 14 16 17 16 17 16 15 16 12 14 14 12 13 15 13 11 9 10 10 11 11 11 10 10 9 7 6 5 4 2 1 1 4 8 7 8 7 8 10
43 39 36 33 30 28 26 8 12 15 12 18 13 11 5 8 10 10 12 10 16 18 16 18 18 16 15 15 15 15 14 13 14 16 15 16 17 15 14 13 13 12 12 11 10 9 7 7 7 9 13 14 14 16
49 46 42 35 35 28 24 22 19 17 15 13 8 5 5 7 8 11 12 14 17 18 19 18 20 21 21 21 21 20 20 21 20 21 21 23 23 22 23 18 20 20 19 17 17 17 16 15 14 13 14 14 15 16
49 47 44 36 38 33 28 25 23 20 17 14 13 12 14 14 14 16 20 22 24 23 23 24 24 25 25 26 26 26 27 28 26 26 27 29 27 28 29 30 31 29 26 26 26 24 24 23 23 22 20 21 21 21
52 49 37 33 31 28 32 27 25 24 21 20 17 16 19 21 22 22 23 26 28 31 31 32 34 33 31 30 29 32 34 34 34 35 35 34 34 34 34 34 34 34 33 33 34 32 32 30 30 30 28 28 28 27
55 53 43 37 34 32 30 28 27 26 25 26 27 28 28 25 26 26 29 35 37 38 37 36 36 36 35 35 36 39 40 39 39 39 40 40 40 40 40 41 40 40 40 41 40 42 40 40 39 37 36 35 35 34
57 58 44 40 36 35 34 33 31 30 31 30 30 33 35 35 33 35 37 41 38 38 38 37 41 44 46 45 44 43 41 41 43 47 50 46 44 45 45 47 47 48 46 46 47 47 47 46 44 43 43 42 41 41
57 59 44 40 38 37 37 37 37 34 34 35 34 37 36 37 36 37 42 44 43 43 38 40 41 43 45 45 46 48 51 50 47 45 49 46 44 46 49 51 52 52 50 49 53 55 54 53 52 52 50 49 48 47
59 59 46 42 39 38 37 36 36 35 35 35 37 38 38 37 38 39 42 41 42 44 44 45 44 44 45 45 47 49 52 52 48 48 52 52 50 47 47 48 48 50 45 47 49 52 54 56 57 57 56 56 55 54
63 63 51 48 46 45 41 39 39 38 37 36 37 39 40 40 40 42 42 42 43 43 45 46 47 47 46 47 47 48 48 48 47 47 49 51 48 46 45 47 49 50 51 50 49 49 50 51 51 51 53 58 61 58
66 57 52 50 49 48 48 45 44 43 43 41 39 40 40 43 44 46 46 46 47 47 46 45 46 47 47 47 47 48 48 48 48 46 47 48 46 46 46 45 45 46 47 48 48 47 47 49 50 50 52 53 53 54
61 56 52 50 49 48 47 45 45 46 46 44 40 40 40 42 43 42 45 47 48 48 48 48 47 47 48 48 48 47 46 46 47 47 47 48 49 48 41 42 45 45 45 47 47 46 45 45 46 46 48 51 51 51
59 55 53 51 49 48 48 47 47 47 47 48 47 44 47 48 46 46 47 48 48 47 48 48 48 47 48 48 48 48 46 46 46 44 45 47 47 47 46 44 41 39 39 41 43 44 44 43 43 43 45 47 48 49
58 54 53 50 48 49 48 49 50 52 53 53 53 52 52 51 49 50 51 50 49 48 48 49 37 43 33 35 44 47 49 47 44 44 44 44 45 46 46 45 43 42 40 39 38 39 39 40 41 41 42 44 46 47
57 57 54 49 48 50 49 49 50 54 57 58 58 57 56 57 58 57 54 41 40 36 35 32 31 32 31 30 30 38 39 43 46 46 44 41 40 38 40 43 41 40 40 40 37 36 35 35 38 40 41 42 43 43
56 54 52 50 48 49 50 51 51 51 56 58 59 59 58 59 58 45 51 40 39 37 36 34 31 30 30 30 31 33 36 36 37 38 38 38 38 37 36 37 37 36 37 38 37 35 35 35 35 36 39 39 34 36
Wind_Direction
234 235 236 238 240 243 245 248 250 253 255 257 258 260 262 263 265 266 267 269 270 271 272 272 271 271 273 274 272 270 271 270 269 268 267 265 264 262 262 262 264 264 264 266 262 258 264 251 268 257 258 257 260 257
233 236 238 239 241 243 245 248 251 254 256 259 261 262 265 267 270 274 274 273 268 265 268 272 273 272 270 271 275 277 274 272 273 274 273 272 272 267 265 264 266 265 266 264 268 266 267 263 259 258 264 259 259 268
235 237 241 245 247 250 252 254 256 258 260 261 264 267 272 279 273 268 268 270 267 267 272 274 273 272 274 278 279 276 274 274 273 272 273 275 278 275 271 266 261 265 265 270 268 262 273 276 271 277 263 264 262 263
241 242 243 244 246 249 252 255 258 260 264 271 276 277 272 270 266 265 268 270 272 271 268 270 275 279 283 283 280 278 278 279 279 280 280 280 278 274 274 274 272 259 270 274 282 273 279 286 279 269 263 260 260 261
247 249 252 256 258 259 260 262 262 265 268 271 266 266 265 264 265 269 275 277 272 272 270 273 277 276 278 276 277 277 277 281 287 295 295 281 271 273 277 225 256 275 285 339 327 307 322 297 279 280 267 251 247 249
245 247 250 250 251 250 251 253 256 259 259 257 258 257 261 268 276 280 277 279 283 285 284 280 277 278 280 285 285 285 296 320 318 9 27 51 3 69 118 128 87 48 354 347 310 296 290 340 327 296 267 251 243 239
236 242 248 249 245 242 241 238 239 248 246 247 253 263 271 276 280 285 291 291 288 287 289 286 282 286 274 267 279 324 81 80 86 83 112 108 103 91 92 112 159 273 29 342 339 310 295 284 252 210 227 233 236 237
227 227 235 224 200 204 227 227 221 226 242 255 264 271 279 287 294 294 292 294 297 295 285 272 263 236 100 108 99 95 96 105 114 113 113 102 95 92 79 67 60 37 10 299 320 294 285 299 297 264 265 245 246 249
199 198 197 192 191 192 191 214 231 242 255 267 277 288 294 293 294 295 299 37 103 91 60 100 110 112 116 117 109 109 102 100 109 97 109 127 114 104 88 56 47 15 343 325 315 303 293 292 288 287 284 273 265 261
188 186 183 185 190 202 219 231 244 261 276 285 292 291 295 298 300 222 261 298 128 97 121 119 128 126 123 119 114 112 110 113 116 131 125 118 116 103 91 57 31 18 3 349 331 304 289 285 288 293 292 283 276 267
185 186 191 195 207 224 242 261 273 282 289 284 285 298 301 179 144 184 57 132 114 113 123 116 117 118 115 115 118 125 127 132 122 130 120 119 109 99 111 107 55 41 21 359 348 327 301 287 277 273 277 276 269 262
185 193 205 225 242 251 261 273 286 283 276 292 306 262 129 231 100 102 137 121 132 134 130 127 127 128 129 132 139 133 132 124 118 120 124 120 115 115 77 69 54 39 22 3 349 336 314 302 255 272 276 222 180 164
197 210 223 246 265 280 293 297 278 280 288 294 217 135 209 132 126 149 148 142 140 139 139 144 142 145 144 146 147 140 128 115 129 116 117 122 108 126 114 74 55 45 37 37 42 37 0 101 106 109 110 116 120 131
174 208 241 264 282 292 294 269 278 284 297 155 153 132 127 142 146 152 149 145 147 151 151 156 160 156 155 157 193 164 146 158 130 133 126 231 143 127 201 84 69 57 42 51 46 43 34 39 27 93 86 113 121 125
99 67 21 342 296 282 269 271 277 253 209 186 164 65 149 144 160 155 155 157 165 164 165 168 174 169 177 175 165 180 194 198 152 143 150 148 155 153 143 118 29 18 18 44 46 44 40 35 33 24 109 122 127 132
68 60 49 22 329 299 282 275 249 216 76 248 120 144 146 154 151 158 164 166 175 178 191 192 190 194 199 199 192 187 192 187 161 165 148 158 157 142 116 85 98 83 14 3 31 45 37 57 96 70 114 134 147 153
45 46 46 36 9 285 256 358 233 229 167 141 152 151 149 148 158 165 179 185 188 191 196 202 201 207 210 217 217 214 210 210 210 207 200 192 198 194 194 194 178 168 138 77 47 293 311 265 316 103 193 180 167 181
34 44 42 42 44 41 13 20 161 175 142 146 151 154 148 149 162 173 187 203 214 215 216 228 232 229 226 229 230 240 239 238 241 242 240 235 230 227 222 217 221 221 237 230 235 281 308 256 244 241 240 251 229 227
27 30 30 34 40 44 43 155 155 141 104 154 155 153 128 168 185 200 210 226 221 227 236 240 242 243 243 242 241 242 246 250 242 249 253 253 247 244 249 251 255 259 264 256 254 252 251 253 267 259 250 254 255 248
19 18 19 22 23 27 31 33 40 40 35 29 25 15 258 262 270 257 258 252 250 253 254 254 252 250 249 247 247 245 247 248 251 253 252 254 255 256 253 250 254 259 263 263 261 265 262 260 258 255 257 261 262 261
13 13 10 11 10 13 10 10 10 10 9 1 346 329 322 309 313 292 275 268 270 273 271 267 265 264 263 261 259 255 254 254 259 257 256 259 253 251 255 255 257 253 253 256 258 257 257 259 260 259 258 259 260 262
7 7 6 2 359 357 0 353 350 346 339 336 329 316 303 295 290 285 282 280 278 277 273 273 272 274 276 273 270 266 263 260 259 257 256 256 259 259 256 253 252 255 253 254 255 257 260 261 261 260 260 262 263 263
3 1 357 350 348 345 341 339 335 329 324 321 315 309 306 307 303 296 290 282 277 276 277 277 275 274 275 275 274 271 270 270 269 268 265 263 261 254 258 261 259 257 257 256 254 256 256 256 258 259 260 261 263 268
358 356 352 350 343 339 333 329 326 322 317 311 304 299 298 296 293 292 291 288 287 286 284 282 280 277 275 274 272 271 268 267 266 267 267 266 265 265 263 261 261 260 259 260 260 259 257 257 258 260 261 261 262 264
354 352 343 336 335 334 331 326 322 320 316 313 306 300 299 296 292 289 285 285 289 288 289 289 288 285 281 280 278 276 274 272 269 267 268 268 266 264 265 265 264 263 260 260 257 260 263 263 263 262 262 263 263 264
349 348 341 338 334 331 327 323 321 319 314 311 308 306 303 304 301 296 291 293 290 288 289 288 285 285 283 280 278 278 277 277 276 273 273 271 267 264 263 264 266 266 264 267 267 267 264 264 264 265 266 267 267 267
344 343 338 335 330 328 328 327 326 322 318 316 311 308 309 308 304 300 298 296 293 290 286 285 286 287 286 287 286 283 280 279 277 276 275 275 272 270 268 265 263 264 265 264 262 262 263 265 265 263 262 261 264 266
339 339 335 331 328 328 327 328 328 325 322 318 317 315 311 305 302 302 302 297 295 292 291 289 288 287 285 283 281 282 280 280 280 279 279 278 276 276 275 271 268 267 266 266 267 267 265 261 261 262 262 265 263 254
337 335 329 327 327 326 325 328 326 322 319 318 318 314 308 302 301 300 296 296 296 294 292 290 289 288 287 285 283 281 279 278 279 279 279 277 277 277 273 272 274 273 271 271 271 271 269 266 262 261 261 261 261 260
332 329 327 326 324 325 326 326 324 321 320 318 318 319 316 312 310 307 306 304 300 295 292 291 290 288 286 284 282 280 278 277 277 276 276 276 275 275 276 275 271 268 268 271 272 272 270 268 266 264 261 261 261 261
327 325 325 324 326 327 328 328 325 324 322 321 320 321 318 316 311 309 308 305 302 299 297 295 288 288 279 277 278 276 275 273 276 274 272 272 270 273 275 275 275 275 274 274 274 272 269 268 266 265 263 262 262 262
324 322 322 331 328 328 330 329 327 325 323 323 322 321 320 318 316 314 311 305 302 302 298 295 290 285 281 280 275 269 269 272 273 273 272 271 269 267 267 269 273 273 274 275 274 275 273 267 264 263 263 263 263 263
320 322 331 327 325 327 331 329 328 326 322 320 320 320 319 319 319 311 312 302 300 298 296 294 293 288 282 278 276 271 270 269 269 271 272 273 273 273 271 271 272 272 271 272 274 275 275 274 271 266 264 265 251 249